| time (UTC) | temp C | wind direction | speed KPH | gust KPH | rain 1hr cm | rain 24hr cm | rain mn cm | humidity % | barometer mb |
| 20260505051516 | -17 | 360 | 4.8 | 9.7 | 0.00 | 0.00 | 0.00 | 1013.5 | |
| 20260505041600 | -17 | 327 | 4.8 | 9.7 | 0.00 | 0.00 | 0.00 | 1013.2 | |
| 20260505040055 | -17 | 311 | 3.2 | 8.0 | 0.00 | 0.00 | 0.00 | 1013.2 | |
| 20260505034611 | -17 | 332 | 4.8 | 11.3 | 0.00 | 0.00 | 0.00 | 1013.1 | |
| 20260505033052 | -17 | 284 | 3.2 | 11.3 | 0.00 | 0.00 | 0.00 | 1013.0 | |
| 20260505031542 | -17 | 322 | 4.8 | 9.7 | 0.00 | 0.00 | 0.00 | 1012.9 | |
| 20260505030037 | -17 | 304 | 3.2 | 8.0 | 0.00 | 0.00 | 0.00 | 1012.7 | |
| 20260505024531 | -17 | 335 | 4.8 | 8.0 | 0.00 | 0.00 | 0.00 | 1012.7 | |
| 20260505023027 | -17 | 328 | 4.8 | 9.7 | 0.00 | 0.00 | 0.00 | 1012.7 | |
| 20260505021521 | -17 | 323 | 4.8 | 11.3 | 0.00 | 0.00 | 0.00 | 1012.7 | |
| 20260505020018 | -17 | 323 | 6.4 | 12.9 | 0.00 | 0.00 | 0.00 | 1012.8 | |
| 20260505014513 | -17 | 327 | 6.4 | 14.5 | 0.00 | 0.00 | 0.00 | 1013.0 | |
| 20260505013009 | -17 | 319 | 4.8 | 9.7 | 0.00 | 0.00 | 0.00 | 1013.1 | |
| 20260505011505 | -17 | 333 | 4.8 | 16.1 | 0.00 | 0.00 | 0.00 | 1013.1 | |
| 20260505004607 | -17 | 323 | 6.4 | 11.3 | 0.00 | 0.00 | 0.00 | 1013.2 | |
| 20260505003057 | -17 | 325 | 6.4 | 12.9 | 0.00 | 0.00 | 0.00 | 1013.2 | |
| 20260505001605 | -17 | 322 | 6.4 | 14.5 | 0.00 | 0.00 | 0.00 | 1013.1 | |
| 20260505000106 | -17 | 329 | 8.0 | 14.5 | 0.00 | 0.00 | 0.00 | 1013.2 | |
| 20260504234546 | -17 | 324 | 6.4 | 12.9 | 0.00 | 0.00 | 0.00 | 1013.2 | |
| 20260504233057 | -17 | 325 | 8.0 | 16.1 | 0.00 | 0.00 | 0.00 | 1013.2 | |
| 20260504231537 | -17 | 319 | 8.0 | 14.5 | 0.00 | 0.00 | 0.00 | 1013.2 | |
| 20260504230035 | -17 | 335 | 8.0 | 12.9 | 0.00 | 0.00 | 0.00 | 1013.2 | |
| 20260504224538 | -17 | 245 | 6.4 | 12.9 | 0.00 | 0.00 | 0.00 | 1013.4 | |
| 20260504223034 | -17 | 324 | 6.4 | 12.9 | 0.00 | 0.00 | 0.00 | 1013.5 | |
| 20260504221533 | -17 | 323 | 8.0 | 14.5 | 0.00 | 0.00 | 0.00 | 1013.5 | |
| 20260504220034 | -17 | 338 | 9.7 | 14.5 | 0.00 | 0.00 | 0.00 | 1013.5 | |
| 20260504214531 | -17 | 328 | 8.0 | 16.1 | 0.00 | 0.00 | 0.00 | 1013.5 | |
| 20260504213034 | -17 | 330 | 6.4 | 14.5 | 0.00 | 0.00 | 0.00 | 1013.5 | |
| 20260504211530 | -17 | 323 | 8.0 | 14.5 | 0.00 | 0.00 | 0.00 | 1013.5 | |
| 20260504210031 | -17 | 323 | 8.0 | 16.1 | 0.00 | 0.00 | 0.00 | 1013.6 | |
| 20260504204529 | -17 | 328 | 8.0 | 16.1 | 0.00 | 0.00 | 0.00 | 1013.6 | |
| 20260504203029 | -17 | 351 | 8.0 | 14.5 | 0.00 | 0.00 | 0.00 | 1013.6 | |
| 20260504201528 | -17 | 334 | 9.7 | 14.5 | 0.00 | 0.00 | 0.00 | 1013.6 | |
| 20260504200029 | -17 | 318 | 8.0 | 14.5 | 0.00 | 0.00 | 0.00 | 1013.6 | |
| 20260504194527 | -17 | 330 | 6.4 | 12.9 | 0.00 | 0.00 | 0.00 | 1013.7 | |
| 20260504193016 | -17 | 321 | 6.4 | 14.5 | 0.00 | 0.00 | 0.00 | 1013.7 | |
| 20260504191511 | -17 | 335 | 4.8 | 14.5 | 0.00 | 0.00 | 0.00 | 1013.9 | |
| 20260504190006 | -17 | 326 | 6.4 | 12.9 | 0.00 | 0.00 | 0.00 | 1013.7 | |
| 20260504184502 | -17 | 323 | 6.4 | 12.9 | 0.00 | 0.00 | 0.00 | 1013.8 | |
| 20260504183058 | -17 | 328 | 6.4 | 12.9 | 0.00 | 0.00 | 0.00 | 1013.6 | |
| 20260504181558 | -17 | 333 | 6.4 | 12.9 | 0.00 | 0.00 | 0.00 | 1013.5 | |
| 20260504180048 | -17 | 300 | 6.4 | 12.9 | 0.00 | 0.00 | 0.00 | 1013.5 | |
| 20260504174544 | -17 | 311 | 8.0 | 14.5 | 0.00 | 0.00 | 0.00 | 1013.4 | |
| 20260504173039 | -17 | 329 | 8.0 | 12.9 | 0.00 | 0.00 | 0.00 | 1013.3 | |
| 20260504171545 | -17 | 316 | 6.4 | 14.5 | 0.00 | 0.00 | 0.00 | 1013.4 | |
| 20260504081555 | -17 | 316 | 4.8 | 11.3 | 0.00 | 0.00 | 0.00 | 1010.9 |